This is the latest recevied weather packets stored in our database for station/object K6POO-1. If no packets are shown the sender has not sent any weather packets the latest 10 day(s).
| Time | Temp. | Humidity | Pressure | Rain* | Wind** | Luminosity | Snow |
|---|---|---|---|---|---|---|---|
| 1777825409 | 13.33° C | 80% | 1013.4 hPa | 0 mm | - | 136 W/m² | - |
| 1777825105 | 13.89° C | 80% | 1013.6 hPa | 0 mm | - | 194 W/m² | - |
| 1777824801 | 13.89° C | 80% | 1013.4 hPa | 0 mm | - | 118 W/m² | - |
| 1777824498 | 13.33° C | 80% | 1013.5 hPa | 0 mm | - | 177 W/m² | - |
| 1777824194 | 13.89° C | 80% | 1013.4 hPa | 0 mm | - | 135 W/m² | - |
| 1777823890 | 13.89° C | 79% | 1013.2 hPa | 0 mm | - | 104 W/m² | - |
| 1777823588 | 13.89° C | 80% | 1013.2 hPa | 0 mm | - | 113 W/m² | - |
| 1777823285 | 13.89° C | 80% | 1013.3 hPa | 0 mm | - | 120 W/m² | - |
| 1777822982 | 13.89° C | 80% | 1013.1 hPa | 0 mm | - | 196 W/m² | - |
| 1777822680 | 13.33° C | 82% | 1013.1 hPa | 0 mm | - | 229 W/m² | - |
| 1777822378 | 13.33° C | 81% | 1013.2 hPa | 0 mm | - | 226 W/m² | - |
| 1777822075 | 13.33° C | 81% | 1013.1 hPa | 0 mm | - | 178 W/m² | - |
| 1777821773 | 13.33° C | 81% | 1013.1 hPa | 0 mm | - | 195 W/m² | - |
| 1777821470 | 13.33° C | 82% | 1013 hPa | 0 mm | - | 188 W/m² | - |
| 1777821167 | 13.33° C | 83% | 1012.9 hPa | 0 mm | - | 188 W/m² | - |
| 1777820864 | 12.78° C | 83% | 1012.8 hPa | 0 mm | - | 127 W/m² | - |
| 1777820560 | 12.78° C | 83% | 1012.9 hPa | 0 mm | - | 100 W/m² | - |
| 1777820257 | 12.78° C | 84% | 1012.8 hPa | 0 mm | - | 99 W/m² | - |
| 1777819954 | 12.78° C | 84% | 1012.6 hPa | 0 mm | - | 76 W/m² | - |
| 1777819652 | 12.78° C | 84% | 1012.5 hPa | 0 mm | - | 75 W/m² | - |
| 1777819350 | 12.78° C | 84% | 1012.7 hPa | 0 mm | - | 75 W/m² | - |
| 1777819046 | 12.78° C | 85% | 1012.6 hPa | 0 mm | - | 58 W/m² | - |
| 1777818744 | 12.22° C | 85% | 1012.7 hPa | 0 mm | - | 41 W/m² | - |
| 1777818440 | 12.22° C | 85% | 1012.3 hPa | 0 mm | - | 34 W/m² | - |
| 1777818137 | 12.22° C | 85% | 1012.3 hPa | 0 mm | - | 27 W/m² | - |
* Rain latest hour (hover to see other rain measurements)
** Current wind speed in m/s (hover to see current wind gust speed)